Weather History for Longville, MN

Change the Weather History Date:

Sunday, January 20, 2013

  Actual Average (KPWC) Record (KPWC)
Temperature  
Mean Temperature -8 °F -  
Max Temperature 1 °F 17 °F 28 °F (1997)
Min Temperature -18 °F 0 °F -25 °F (2008)
Degree Days  
Heating Degree Days 74    
Moisture  
Dew Point -15 °F    
Average Humidity 74    
Maximum Humidity 84    
Minimum Humidity 60    
Precipitation  
Precipitation 0.00 in - - ()
Sea Level Pressure  
Sea Level Pressure 30.23 in    
Wind  
Wind Speed 6 mph (WNW)    
Max Wind Speed 13 mph    
Max Gust Speed 18 mph    
Visibility 8 miles    
Events Snow    
Averages and records for this station are not official NWS values.
T = Trace of Precipitation, MM = Missing Value Source: NWS Daily Summary

Daily Weather History Graph

Daily Weather History Graph

Search for Another Location

Airport:

Trip Planner

Search our weather history database for the weather conditions in past years. The results will help you decide how hot, cold, wet, or windy it might be!

Date:

Astronomy

Jan. 20, 2013 Rise Set
Actual Time 7:54 AM CST 5:02 PM CST
Civil Twilight 7:20 AM CST 5:35 PM CST
Nautical Twilight 6:43 AM CST 6:13 PM CST
Astronomical Twilight 6:06 AM CST 6:49 PM CST
Moon 12:04 PM CST 2:25 AM CST
Length of Visible Light 10h 15m
Length of Day
9h 08m
Waxing Gibbous, 66% of the Moon is Illuminated
Jan 20
Waxing Gibbous
Jan 26
Full
Feb 3
Last Quarter
Feb 10
New
Feb 17
First Quarter

Hourly Weather History & Observations

Time (CST) Temp. Windchill Dew Point Humidity Pressure Visibility Wind Dir Wind Speed Gust Speed Precip Events Conditions
12:16 AM -5.8 °F -19.9 °F -11.2 °F 77% 30.18 in 10.0 mi WNW 6.9 mph - N/A   Clear
12:36 AM -7.6 °F -20.6 °F -11.2 °F 84% 30.19 in 10.0 mi WNW 5.8 mph - N/A   Clear
12:56 AM -7.6 °F -22.1 °F -11.2 °F 84% 30.20 in 10.0 mi WNW 6.9 mph - N/A   Clear
1:16 AM -7.6 °F -23.4 °F -11.2 °F 84% 30.20 in 7.0 mi WNW 8.1 mph - N/A   Mostly Cloudy
1:36 AM -7.6 °F -22.1 °F -13.0 °F 77% 30.20 in 10.0 mi WNW 6.9 mph - N/A   Scattered Clouds
1:56 AM -7.6 °F -20.6 °F -13.0 °F 77% 30.20 in 10.0 mi WNW 5.8 mph - N/A   Clear
2:16 AM -9.4 °F -24.3 °F -14.8 °F 77% 30.22 in 10.0 mi WNW 6.9 mph - N/A   Clear
2:36 AM -9.4 °F -26.8 °F -14.8 °F 77% 30.23 in 10.0 mi WNW 9.2 mph - N/A   Clear
2:56 AM -9.4 °F -22.7 °F -14.8 °F 77% 30.24 in 10.0 mi WNW 5.8 mph - N/A   Clear
3:16 AM -9.4 °F -25.6 °F -14.8 °F 77% 30.24 in 10.0 mi WNW 8.1 mph - N/A   Clear
3:36 AM -9.4 °F -24.3 °F -14.8 °F 77% 30.24 in 10.0 mi WNW 6.9 mph - N/A   Clear
3:56 AM -11.2 °F -27.8 °F -14.8 °F 84% 30.25 in 10.0 mi West 8.1 mph - N/A   Clear
4:16 AM -11.2 °F -24.8 °F -16.6 °F 77% 30.25 in 10.0 mi West 5.8 mph - N/A   Clear
4:36 AM -11.2 °F -23.0 °F -16.6 °F 77% 30.25 in 10.0 mi West 4.6 mph - N/A   Clear
4:56 AM -13.0 °F -25.1 °F -16.6 °F 84% 30.25 in 10.0 mi WNW 4.6 mph - N/A   Clear
5:16 AM -11.2 °F -23.0 °F -16.6 °F 77% 30.25 in 10.0 mi West 4.6 mph - N/A   Clear
5:36 AM -13.0 °F -22.7 °F -16.6 °F 84% 30.25 in 10.0 mi West 3.5 mph - N/A   Clear
5:56 AM -14.8 °F - -18.4 °F 84% 30.25 in 10.0 mi Calm Calm - N/A   Clear
6:16 AM -14.8 °F - -20.2 °F 77% 30.25 in 10.0 mi Calm Calm - N/A   Clear
6:36 AM -16.6 °F - -20.2 °F 84% 30.24 in 10.0 mi Calm Calm - N/A   Clear
6:56 AM -16.6 °F - -20.2 °F 84% 30.24 in 10.0 mi Calm Calm - N/A   Clear
7:16 AM -16.6 °F - -22.0 °F 76% 30.24 in 10.0 mi Calm Calm - N/A   Clear
7:36 AM -16.6 °F - -22.0 °F 76% 30.24 in 10.0 mi Calm Calm - N/A   Clear
7:56 AM -18.4 °F - -23.8 °F 76% 30.25 in 10.0 mi Calm Calm - N/A   Clear
8:16 AM -18.4 °F - -23.8 °F 76% 30.26 in 10.0 mi Calm Calm - N/A   Clear
8:36 AM -16.6 °F - -20.2 °F 84% 30.27 in 10.0 mi Calm Calm - N/A   Clear
8:56 AM -11.2 °F -20.6 °F -16.6 °F 77% 30.28 in 10.0 mi West 3.5 mph - N/A   Clear
9:16 AM -11.2 °F -26.4 °F -16.6 °F 77% 30.28 in 7.0 mi West 6.9 mph - N/A   Clear
9:36 AM -11.2 °F -24.8 °F -14.8 °F 84% 30.28 in 2.0 mi West 5.8 mph - N/A Snow Light Snow
9:56 AM -9.4 °F -22.7 °F -14.8 °F 77% 30.29 in 2.5 mi West 5.8 mph - N/A   Haze
10:16 AM -9.4 °F -18.6 °F -14.8 °F 77% 30.28 in 4.0 mi WSW 3.5 mph - N/A Snow Light Snow
10:36 AM -7.6 °F - -13.0 °F 77% 30.28 in 2.0 mi Calm Calm - N/A Snow Light Snow
10:56 AM -5.8 °F -18.4 °F -11.2 °F 77% 30.28 in 5.0 mi SW 5.8 mph - N/A Snow Light Snow
11:16 AM -5.8 °F -14.5 °F -11.2 °F 77% 30.27 in 2.5 mi WSW 3.5 mph - N/A Snow Light Snow
11:36 AM -4.0 °F -17.8 °F -11.2 °F 71% 30.27 in 3.0 mi WSW 6.9 mph - N/A Snow Light Snow
11:56 AM -4.0 °F -19.0 °F -11.2 °F 71% 30.26 in 4.0 mi West 8.1 mph - N/A Snow Light Snow
12:16 PM -2.2 °F -16.8 °F -9.4 °F 71% 30.26 in 4.0 mi West 8.1 mph - N/A Snow Light Snow
12:36 PM -0.4 °F -12.0 °F -9.4 °F 66% 30.24 in 7.0 mi WSW 5.8 mph - N/A   Mostly Cloudy
12:56 PM -0.4 °F -14.7 °F -9.4 °F 66% 30.24 in 7.0 mi West 8.1 mph - N/A   Scattered Clouds
1:16 PM -0.4 °F -17.6 °F -9.4 °F 66% 30.24 in 7.0 mi WNW 11.5 mph 17.3 mph N/A   Scattered Clouds
1:36 PM -0.4 °F -16.7 °F -9.4 °F 66% 30.23 in 7.0 mi WNW 10.4 mph - N/A   Mostly Cloudy
1:56 PM -0.4 °F -14.7 °F -9.4 °F 66% 30.22 in 7.0 mi West 8.1 mph - N/A   Mostly Cloudy
2:16 PM -0.4 °F -13.4 °F -7.6 °F 72% 30.21 in 2.5 mi West 6.9 mph - N/A   Haze
2:36 PM 1.4 °F -13.5 °F -7.6 °F 66% 30.21 in 2.5 mi West 9.2 mph - N/A   Haze
2:56 PM -0.4 °F -10.4 °F -7.6 °F 72% 30.21 in 5.0 mi NW 4.6 mph - N/A   Haze
3:16 PM -0.4 °F -12.0 °F -7.6 °F 72% 30.21 in 7.0 mi NNW 5.8 mph 9.2 mph N/A   Overcast
3:36 PM -0.4 °F -14.7 °F -9.4 °F 66% 30.20 in 7.0 mi WNW 8.1 mph - N/A   Mostly Cloudy
3:56 PM -0.4 °F -15.7 °F -9.4 °F 66% 30.20 in 10.0 mi WNW 9.2 mph - N/A   Overcast
4:16 PM -0.4 °F -17.6 °F -11.2 °F 60% 30.20 in 10.0 mi West 11.5 mph 16.1 mph N/A   Mostly Cloudy
4:36 PM -2.2 °F -12.5 °F -11.2 °F 66% 30.20 in 10.0 mi WNW 4.6 mph - N/A   Scattered Clouds
4:56 PM -2.2 °F -15.6 °F -9.4 °F 71% 30.20 in 10.0 mi WNW 6.9 mph - N/A   Clear
5:16 PM -2.2 °F -15.6 °F -11.2 °F 66% 30.20 in 10.0 mi WNW 6.9 mph - N/A   Scattered Clouds
5:36 PM -4.0 °F -16.3 °F -11.2 °F 71% 30.20 in 10.0 mi WNW 5.8 mph - N/A   Scattered Clouds
5:56 PM -4.0 °F -14.6 °F -11.2 °F 71% 30.20 in 10.0 mi WNW 4.6 mph - N/A   Scattered Clouds
6:16 PM -5.8 °F -21.2 °F -13.0 °F 71% 30.20 in 10.0 mi West 8.1 mph - N/A   Clear
6:36 PM -5.8 °F -23.4 °F -14.8 °F 65% 30.20 in 10.0 mi WNW 10.4 mph 16.1 mph N/A   Clear
6:56 PM -7.6 °F -26.6 °F -14.8 °F 71% 30.20 in 10.0 mi WNW 11.5 mph 16.1 mph N/A   Clear
7:16 PM -7.6 °F -24.6 °F -14.8 °F 71% 30.20 in 10.0 mi WNW 9.2 mph - N/A   Clear
7:36 PM -7.6 °F -25.7 °F -16.6 °F 65% 30.20 in 10.0 mi West 10.4 mph 18.4 mph N/A   Clear
7:56 PM -7.6 °F -26.6 °F -16.6 °F 65% 30.20 in 10.0 mi WNW 11.5 mph 16.1 mph N/A   Clear
8:16 PM -9.4 °F -27.9 °F -16.6 °F 71% 30.20 in 10.0 mi WNW 10.4 mph - N/A   Clear
8:36 PM -9.4 °F -26.8 °F -16.6 °F 71% 30.20 in 10.0 mi WNW 9.2 mph - N/A   Clear
8:56 PM -9.4 °F -28.9 °F -16.6 °F 71% 30.20 in 10.0 mi WNW 11.5 mph 16.1 mph N/A   Clear
9:16 PM -9.4 °F -25.6 °F -16.6 °F 71% 30.19 in 10.0 mi WNW 8.1 mph - N/A   Clear
9:36 PM -9.4 °F -25.6 °F -16.6 °F 71% 30.19 in 10.0 mi WNW 8.1 mph - N/A   Clear
9:56 PM -11.2 °F -24.8 °F -18.4 °F 70% 30.19 in 10.0 mi WNW 5.8 mph - N/A   Clear
10:16 PM -11.2 °F -26.4 °F -18.4 °F 70% 30.19 in 10.0 mi West 6.9 mph - N/A   Clear
10:36 PM -11.2 °F -26.4 °F -18.4 °F 70% 30.20 in 10.0 mi WNW 6.9 mph - N/A   Clear
10:56 PM -11.2 °F -26.4 °F -18.4 °F 70% 30.20 in 10.0 mi WNW 6.9 mph - N/A   Clear
11:16 PM -11.2 °F -32.1 °F -20.2 °F 64% 30.20 in 10.0 mi West 12.7 mph 18.4 mph N/A   Clear
11:36 PM -13.0 °F -32.4 °F -20.2 °F 70% 30.21 in 10.0 mi WNW 10.4 mph - N/A   Clear
11:56 PM -13.0 °F -31.3 °F -20.2 °F 70% 30.20 in 7.0 mi WNW 9.2 mph - N/A   Scattered Clouds